TimeCDT,TemperatureF,Dew PointF,Humidity,Sea Level PressureIn,VisibilityMPH,Wind Direction,Wind SpeedMPH,Gust SpeedMPH,PrecipitationIn,Events,Conditions,WindDirDegrees,DateUTC
12:12 AM,33.8,17.6,52,29.81,10.0,SSW,5.8,-,N/A,,Clear,210,2012-10-08 05:12:00
12:33 AM,33.8,17.6,52,29.80,10.0,SW,4.6,-,N/A,,Clear,220,2012-10-08 05:33:00
12:52 AM,33.8,17.6,52,29.80,10.0,SSW,3.5,-,N/A,,Clear,210,2012-10-08 05:52:00
1:13 AM,30.2,17.6,60,29.79,10.0,SSW,3.5,-,N/A,,Clear,210,2012-10-08 06:13:00
1:33 AM,32.0,17.6,55,29.79,10.0,Calm,Calm,-,N/A,,Clear,0,2012-10-08 06:33:00
1:52 AM,32.0,17.6,55,29.79,10.0,Calm,Calm,-,N/A,,Clear,0,2012-10-08 06:52:00
2:13 AM,30.2,17.6,60,29.79,10.0,Calm,Calm,-,N/A,,Clear,0,2012-10-08 07:13:00
2:33 AM,30.2,17.6,60,29.78,10.0,South,3.5,-,N/A,,Clear,180,2012-10-08 07:33:00
2:52 AM,30.2,17.6,60,29.78,10.0,South,3.5,-,N/A,,Clear,180,2012-10-08 07:52:00
3:13 AM,33.8,19.4,56,29.77,10.0,South,3.5,-,N/A,,Scattered Clouds,180,2012-10-08 08:13:00
3:33 AM,33.8,19.4,56,29.76,10.0,South,3.5,-,N/A,,Scattered Clouds,190,2012-10-08 08:33:00
3:52 AM,33.8,19.4,56,29.75,10.0,South,3.5,-,N/A,,Scattered Clouds,180,2012-10-08 08:52:00
4:13 AM,35.6,19.4,52,29.74,10.0,South,4.6,-,N/A,,Overcast,190,2012-10-08 09:13:00
4:33 AM,35.6,19.4,52,29.74,10.0,South,3.5,-,N/A,,Overcast,190,2012-10-08 09:33:00
4:52 AM,37.4,19.4,48,29.73,10.0,Calm,Calm,-,N/A,,Overcast,0,2012-10-08 09:52:00
5:13 AM,37.4,19.4,48,29.73,10.0,South,5.8,-,N/A,,Overcast,190,2012-10-08 10:13:00
5:32 AM,37.4,21.2,52,29.72,10.0,South,4.6,-,N/A,,Overcast,190,2012-10-08 10:32:00
5:53 AM,39.2,21.2,49,29.72,10.0,SSW,3.5,-,N/A,,Overcast,200,2012-10-08 10:53:00
6:12 AM,37.4,21.2,52,29.71,10.0,South,4.6,-,N/A,,Mostly Cloudy,190,2012-10-08 11:12:00
6:32 AM,35.6,21.2,56,29.70,10.0,South,4.6,-,N/A,,Scattered Clouds,180,2012-10-08 11:32:00
6:53 AM,35.6,21.2,56,29.70,10.0,SSE,3.5,-,N/A,,Scattered Clouds,160,2012-10-08 11:53:00
7:12 AM,35.6,21.2,56,29.70,10.0,South,5.8,-,N/A,,Clear,180,2012-10-08 12:12:00
7:32 AM,35.6,21.2,56,29.69,10.0,South,4.6,-,N/A,,Clear,180,2012-10-08 12:32:00
7:53 AM,39.2,23.0,52,29.69,10.0,SSE,5.8,-,N/A,,Clear,160,2012-10-08 12:53:00
8:13 AM,39.2,23.0,52,29.68,10.0,South,5.8,-,N/A,,Mostly Cloudy,170,2012-10-08 13:13:00
8:33 AM,41.0,24.8,53,29.68,10.0,South,8.1,-,N/A,,Overcast,180,2012-10-08 13:33:00
8:53 AM,41.0,24.8,53,29.66,10.0,South,8.1,-,N/A,,Mostly Cloudy,190,2012-10-08 13:53:00
9:12 AM,44.6,24.8,46,29.65,10.0,SSW,9.2,-,N/A,,Mostly Cloudy,200,2012-10-08 14:12:00
9:33 AM,48.2,26.6,43,29.65,10.0,SSW,11.5,-,N/A,,Mostly Cloudy,200,2012-10-08 14:33:00
9:53 AM,48.2,26.6,43,29.64,10.0,SSW,12.7,-,N/A,,Mostly Cloudy,210,2012-10-08 14:53:00
10:12 AM,50.0,28.4,43,29.63,10.0,SW,11.5,-,N/A,,Mostly Cloudy,220,2012-10-08 15:12:00
10:33 AM,51.8,28.4,41,29.62,10.0,SW,12.7,17.3,N/A,,Scattered Clouds,220,2012-10-08 15:33:00
11:12 AM,51.8,32.0,47,29.60,10.0,SSW,12.7,-,N/A,,Drizzle,210,2012-10-08 16:12:00
11:33 AM,51.8,32.0,47,29.58,10.0,SW,13.8,-,N/A,Rain,Light Rain,220,2012-10-08 16:33:00
11:53 AM,51.8,32.0,47,29.58,10.0,SW,11.5,-,N/A,Rain,Light Rain,220,2012-10-08 16:53:00
12:12 PM,53.6,32.0,44,29.58,10.0,SW,8.1,16.1,N/A,Rain,Light Rain,220,2012-10-08 17:12:00
12:33 PM,55.4,30.2,38,29.58,10.0,SW,13.8,-,N/A,,Mostly Cloudy,230,2012-10-08 17:33:00
12:53 PM,57.2,32.0,38,29.58,10.0,WSW,13.8,-,N/A,,Mostly Cloudy,250,2012-10-08 17:53:00
1:33 PM,60.8,33.8,36,29.57,10.0,WNW,16.1,-,N/A,,Mostly Cloudy,290,2012-10-08 18:33:00
1:53 PM,62.6,35.6,37,29.56,10.0,NW,15.0,20.7,N/A,,Mostly Cloudy,310,2012-10-08 18:53:00
2:12 PM,60.8,35.6,39,29.57,10.0,WNW,19.6,23.0,N/A,,Scattered Clouds,300,2012-10-08 19:12:00
2:33 PM,62.6,37.4,39,29.57,10.0,NW,17.3,-,N/A,,Scattered Clouds,320,2012-10-08 19:33:00
2:52 PM,64.4,39.2,40,29.58,10.0,NW,21.9,26.5,N/A,,Scattered Clouds,310,2012-10-08 19:52:00
3:13 PM,64.4,39.2,40,29.58,10.0,NW,23.0,27.6,N/A,,Mostly Cloudy,310,2012-10-08 20:13:00
3:33 PM,62.6,39.2,42,29.58,10.0,NNW,19.6,26.5,N/A,,Overcast,330,2012-10-08 20:33:00
3:52 PM,62.6,39.2,42,29.59,10.0,NW,25.3,32.2,N/A,,Mostly Cloudy,320,2012-10-08 20:52:00
4:13 PM,62.6,39.2,42,29.60,10.0,NNW,20.7,27.6,N/A,,Mostly Cloudy,340,2012-10-08 21:13:00
4:33 PM,60.8,39.2,45,29.61,10.0,NNW,25.3,32.2,N/A,,Mostly Cloudy,330,2012-10-08 21:33:00
4:52 PM,60.8,39.2,45,29.62,10.0,NNW,24.2,29.9,N/A,,Mostly Cloudy,330,2012-10-08 21:52:00
5:13 PM,60.8,39.2,45,29.64,10.0,NNW,25.3,32.2,N/A,,Overcast,340,2012-10-08 22:13:00
5:32 PM,59.0,37.4,45,29.65,10.0,NNW,21.9,27.6,N/A,,Mostly Cloudy,340,2012-10-08 22:32:00
5:53 PM,57.2,37.4,48,29.66,10.0,NNW,20.7,32.2,N/A,,Scattered Clouds,330,2012-10-08 22:53:00
6:13 PM,57.2,37.4,48,29.67,10.0,NNW,17.3,27.6,N/A,,Clear,330,2012-10-08 23:13:00
7:13 PM,50.0,37.4,62,29.71,10.0,North,6.9,-,N/A,,Clear,360,2012-10-09 00:13:00
7:32 PM,48.2,35.6,62,29.70,10.0,North,3.5,-,N/A,,Clear,360,2012-10-09 00:32:00
7:53 PM,44.6,35.6,71,29.71,10.0,NNW,4.6,-,N/A,,Clear,330,2012-10-09 00:53:00
8:13 PM,42.8,33.8,70,29.71,10.0,NW,3.5,-,N/A,,Clear,310,2012-10-09 01:13:00
8:32 PM,42.8,33.8,70,29.71,10.0,West,5.8,-,N/A,,Clear,280,2012-10-09 01:32:00
8:53 PM,42.8,33.8,70,29.72,10.0,West,3.5,-,N/A,,Clear,260,2012-10-09 01:53:00
9:12 PM,42.8,33.8,70,29.72,10.0,West,4.6,-,N/A,,Scattered Clouds,260,2012-10-09 02:12:00
9:32 PM,41.0,33.8,76,29.72,10.0,WSW,4.6,-,N/A,,Scattered Clouds,250,2012-10-09 02:32:00
9:53 PM,44.6,33.8,66,29.72,10.0,West,3.5,-,N/A,,Overcast,260,2012-10-09 02:53:00
10:12 PM,44.6,35.6,71,29.73,10.0,West,3.5,-,N/A,,Overcast,270,2012-10-09 03:12:00
10:53 PM,42.8,33.8,70,29.73,10.0,West,6.9,-,N/A,,Mostly Cloudy,280,2012-10-09 03:53:00
11:13 PM,42.8,33.8,70,29.73,10.0,West,9.2,-,N/A,,Scattered Clouds,270,2012-10-09 04:13:00
11:33 PM,41.0,33.8,76,29.73,10.0,West,9.2,-,N/A,,Clear,270,2012-10-09 04:33:00
11:53 PM,39.2,33.8,81,29.73,10.0,West,8.1,-,N/A,,Clear,280,2012-10-09 04:53:00